Regional Weather Roundup
Issued by NWS

Home | Current Version | Previous Version | Text Only | Print | Product List | Glossary On
Versions: 1 2 3 4 5 6 7 8 9 10 11 12 13 14 15 16 17 18 19 20 21 22 23 24 25 26 27 28 29 30 31 32 33 34 35 36 37 38 39 40 41 42 43 44 45 46 47 48 49 50
000
ASUS43 KIND 220009
RWRIN

WEATHER ROUNDUP FOR INDIANA
NATIONAL WEATHER SERVICE INDIANAPOLIS IN
800 PM EDT SUN SEP 21 2014

NOTE: "FAIR" INDICATES FEW OR NO CLOUDS BELOW 12,000 FEET WITH NO
SIGNIFICANT WEATHER AND/OR OBSTRUCTIONS TO VISIBILITY.

* - STATION DOES NOT REPORT WEATHER SUCH AS PRECIPITATION OR FOG.

+ - STATION NOT QUALITY CONTROLLED BY THE NATIONAL WEATHER SERVICE.
    USE DATA WITH CAUTION...ESPECIALLY DEWPOINT AND RELATIVE
    HUMIDITY OBSERVATIONS.

INZ001>003-010>013-019-020-220100-
NORTHWEST INDIANA

CITY           SKY/WX    TMP DP  RH WIND       PRES   REMARKS
GARY /AIRPORT/ CLOUDY    61  52  72 N9G21     30.06R
KNOX *+        CLOUDY    57  49  75 N8        30.03R
LA PORTE +     CLOUDY    56  49  77 N14       30.04R
6HR MIN TEMP:  56; 6HR MAX TEMP:  62;

MICHIGAN CITY+ CLOUDY    55  46  71 N10G17    30.04R
MONTICELLO +   MOCLDY    58  51  79 N5        30.02R
RENSSELAER +   CLOUDY    59  54  82 N5        30.04R
VALPARAISO     CLOUDY    58  50  75 VRB7      30.05R
6HR MIN TEMP:  58; 6HR MAX TEMP:  65;


$$

LMZ046-743>745-220100-
SOUTHERN LAKE MICHIGAN

STATION/POSITION TIME  TEMP WIND        PRES
                       AIR  DIR/SP/G
                 (UTC) (F)  (DEG/KT/KT) (MB)
MICHIGAN CITY    0000   58  350/ 21/ 25   N/A

$$

INZ004-005-014>016-021>024-220100-
NORTH CENTRAL INDIANA

CITY           SKY/WX    TMP DP  RH WIND       PRES   REMARKS
GOSHEN         PTCLDY   N/A N/A N/A N13G23    30.00R
                                      6HR PCP:  0.07;

LOGANSPORT +   CLOUDY    57  46  67 N8        30.03R
PERU/GRISSOM   MOCLDY    58  51  77 N10       30.02R
6HR MIN TEMP:  58; 6HR MAX TEMP:  67; 6HR PCP: TRACE;

ROCHESTER +    MOCLDY    59  50  72 NW8       30.02S
SOUTH BEND     MOCLDY    56  48  74 N16G23    30.02R
6HR MIN TEMP:  56; 6HR MAX TEMP:  63; 6HR PCP:  0.05;

WARSAW +       PTCLDY    54  48  82 NW8       30.01R

$$

INZ006>009-017-018-025>027-220100-
NORTHEAST INDIANA

CITY           SKY/WX    TMP DP  RH WIND       PRES   REMARKS
ANGOLA *+      CLOUDY    55  46  71 N9        29.96R
FORT WAYNE     MOCLDY    57  49  74 NW13      29.98R
6HR MIN TEMP:  57; 6HR MAX TEMP:  65; 6HR PCP: TRACE;

HUNTINGTON +   PTCLDY    56  48  76 NW8       30.00R
6HR MIN TEMP:  56; 6HR MAX TEMP:  64; 6HR PCP:  0.01;


$$

INZ028-029-035-036-043>045-051>053-220100-
WEST CENTRAL INDIANA

CITY           SKY/WX    TMP DP  RH WIND       PRES   REMARKS
GREENCASTLE +  MOCLDY    61  50  67 NW5       30.03R
LAFAYETTE      MOCLDY    59  50  72 NW6       30.02R
6HR MIN TEMP:  58; 6HR MAX TEMP:  67;

TERRE HAUTE    CLEAR     61  50  67 NW6       30.03R
6HR MIN TEMP:  61; 6HR MAX TEMP:  76; 6HR PCP: TRACE;


$$

INZ030>032-037>040-046>048-054>057-064-065-220100-
CENTRAL INDIANA

CITY           SKY/WX    TMP DP  RH WIND       PRES   REMARKS
CP ATTERBURY + PTCLDY    61  48  63 NW8       30.01R
FRANKFORT +    PTCLDY    57  51  80 NW5       30.03R
INDIANAPOLIS   CLOUDY    63  49  60 NW15      30.01R
6HR MIN TEMP:  63; 6HR MAX TEMP:  74;

-EAGLE CREEK   MOCLDY    62  48  60 NW9       30.01R
6HR MIN TEMP:  62; 6HR MAX TEMP:  72;

KOKOMO *+      PTCLDY    57  46  67 N7        30.02R
MARION +       PTCLDY    57  47  67 NW8       30.01R
MT COMFORT *+  MOCLDY    61  43  51 NW9       30.01R
SHELBYVILLE    CLOUDY    64  49  57 NW15      30.00R
6HR MIN TEMP:  64; 6HR MAX TEMP:  76;

ZIONSVILLE +   PTCLDY    59  48  68 NW7       30.03R
6HR MIN TEMP:  59; 6HR MAX TEMP:  72;


$$

INZ033-034-041-042-049-050-058-059-220100-
EAST CENTRAL INDIANA

CITY           SKY/WX    TMP DP  RH WIND       PRES   REMARKS
MUNCIE         CLEAR     57  48  72 NW13      30.00R
6HR MIN TEMP:  57; 6HR MAX TEMP:  70; 6HR PCP: TRACE;


$$

INZ060-061-067>069-081>083-085>088-220100-
SOUTHWEST INDIANA

CITY           SKY/WX    TMP DP  RH WIND       PRES   REMARKS
EVANSVILLE     PTCLDY    71  48  43 NW7       30.01R
6HR MIN TEMP:  71; 6HR MAX TEMP:  79;

WASHINGTON +   CLEAR     65  50  58 N8G17     30.01R
6HR MIN TEMP:  65; 6HR MAX TEMP:  79;


$$

INZ062-063-066-070>080-084-089>092-220100-
SOUTH CENTRAL AND SOUTHEAST INDIANA

CITY           SKY/WX    TMP DP  RH WIND       PRES   REMARKS
BLOOMINGTON    CLEAR     62  47  57 VRB3      30.02R
6HR MIN TEMP:  62; 6HR MAX TEMP:  75;


$$




USA.gov is the U.S. government's official web portal to all federal, state and local government web resources and services.